This is the latest recevied weather packets stored in our database for station/object K0SNA. If no packets are shown the sender has not sent any weather packets the latest 10 day(s).
| Time | Temp. | Humidity | Pressure | Rain* | Wind** | Luminosity | Snow |
|---|---|---|---|---|---|---|---|
| 1778119946 | 5° C | 54% | 1015.7 hPa | 0 mm | - | 0 W/m² | - |
| 1778119645 | 5° C | 54% | 1015.5 hPa | 0 mm | - | 0 W/m² | - |
| 1778119341 | 5° C | 53% | 1015.7 hPa | 0 mm | - | 0 W/m² | - |
| 1778119038 | 5° C | 53% | 1015.7 hPa | 0 mm | - | 0 W/m² | - |
| 1778118736 | 5.56° C | 53% | 1015.7 hPa | 0 mm | - | 0 W/m² | - |
| 1778118432 | 5.56° C | 51% | 1015.5 hPa | 0 mm | - | 0 W/m² | - |
| 1778118128 | 5.56° C | 51% | 1015.7 hPa | 0 mm | - | 0 W/m² | - |
| 1778117825 | 5.56° C | 51% | 1015.4 hPa | 0 mm | - | 0 W/m² | - |
| 1778117523 | 6.11° C | 51% | 1015.4 hPa | 0 mm | - | 1 W/m² | - |
| 1778117220 | 6.11° C | 50% | 1015.6 hPa | 0 mm | - | 2 W/m² | - |
| 1778116915 | 6.11° C | 50% | 1015.6 hPa | 0 mm | - | 3 W/m² | - |
| 1778116613 | 6.11° C | 50% | 1015.6 hPa | 0 mm | - | 4 W/m² | - |
| 1778116309 | 6.11° C | 49% | 1015.5 hPa | 0 mm | - | 6 W/m² | - |
| 1778116004 | 6.67° C | 49% | 1015.5 hPa | 0 mm | - | 8 W/m² | - |
| 1778115700 | 6.67° C | 48% | 1015.5 hPa | 0 mm | - | 10 W/m² | - |
| 1778115398 | 6.67° C | 48% | 1015.6 hPa | 0 mm | - | 12 W/m² | - |
| 1778115093 | 6.67° C | 48% | 1015.6 hPa | 0 mm | - | 15 W/m² | - |
| 1778114791 | 6.67° C | 47% | 1015.5 hPa | 0 mm | - | 17 W/m² | - |
| 1778114488 | 6.67° C | 47% | 1015.7 hPa | 0 mm | - | 19 W/m² | - |
| 1778114185 | 7.22° C | 47% | 1015.5 hPa | 0 mm | - | 21 W/m² | - |
| 1778113879 | 7.22° C | 46% | 1015.5 hPa | 0 mm | - | 25 W/m² | - |
| 1778113576 | 7.78° C | 46% | 1015.6 hPa | 0 mm | - | 29 W/m² | - |
| 1778113272 | 7.78° C | 46% | 1015.7 hPa | 0 mm | - | 46 W/m² | - |
| 1778112969 | 7.22° C | 47% | 1015.6 hPa | 0 mm | - | 34 W/m² | - |
| 1778112667 | 7.22° C | 48% | 1015.6 hPa | 0 mm | - | 31 W/m² | - |
* Rain latest hour (hover to see other rain measurements)
** Current wind speed in m/s (hover to see current wind gust speed)